Mount Werner, CO

3:29 AM MDT on September 24, 2017 (GMT -0600)
Mount Werner

Weather History for K3MW - October, 2011

Change the Weather History Date:

Tuesday, October 4, 2011

  Actual Average (KSBS) Record (KSBS)
Temperature  
Mean Temperature 46 °F -  
Max Temperature 55 °F 63 °F 79 °F (1943)
Min Temperature 37 °F 28 °F 14 °F (1919)
Degree Days  
Heating Degree Days 19    
Moisture  
Dew Point 34 °F    
Average Humidity 60    
Maximum Humidity 93    
Minimum Humidity 38    
Precipitation  
Precipitation 0.00 in - - ()
Sea Level Pressure  
Sea Level Pressure 30.34 in    
Wind  
Wind Speed 3 mph (SSW)    
Max Wind Speed 12 mph    
Max Gust Speed 22 mph    
Visibility 8 miles    
Events Rain , Snow , Thunderstorm    
Averages and records for this station are not official NWS values.
T = Trace of Precipitation, MM = Missing Value Source: NWS Daily Summary

Daily Weather History Graph

Daily Weather History Graph

Search for Another Location

Airport or City:

Trip Planner

Search our weather history database for the weather conditions in past years. The results will help you decide how hot, cold, wet, or windy it might be!

Date:

Astronomy

Oct. 04, 2011 Rise Set
Actual Time 7:06 AM MDT 6:44 PM MDT
Civil Twilight 6:39 AM MDT 7:11 PM MDT
Nautical Twilight 6:07 AM MDT 7:43 PM MDT
Astronomical Twilight 5:35 AM MDT 8:15 PM MDT
Moon 2:49 PM MDT (10/4) No Moon Set
Length of Visible Light 12h 32m
Length of Day
11h 38m
First Quarter, 56% of the Moon is Illuminated
Oct 4
First Quarter
Oct 11
Full
Oct 19
Last Quarter
Oct 26
New
Nov 2
First Quarter

Hourly Weather History & Observations

Time (MDT) Temp. Windchill Dew Point Humidity Pressure Visibility Wind Dir Wind Speed Gust Speed Precip Events Conditions
12:06 AM 50.0 °F - 32.0 °F 50% 30.42 in 10.0 mi East 3.5 mph - N/A   Scattered Clouds
12:26 AM 50.0 °F - 32.0 °F 50% 30.42 in 10.0 mi Calm Calm - N/A   Clear
12:46 AM 48.2 °F - 32.0 °F 54% 30.42 in 10.0 mi Calm Calm - N/A   Clear
1:26 AM 48.2 °F - 32.0 °F 54% 30.41 in 10.0 mi Calm Calm - N/A   Scattered Clouds
1:46 AM 48.2 °F - 32.0 °F 54% 30.41 in 10.0 mi Calm Calm - N/A   Clear
2:26 AM 46.4 °F - 32.0 °F 57% 30.41 in 10.0 mi Calm Calm - N/A   Scattered Clouds
2:46 AM 48.2 °F - 32.0 °F 54% 30.40 in 10.0 mi Calm Calm - N/A   Mostly Cloudy
3:06 AM 48.2 °F - 32.0 °F 54% 30.39 in 10.0 mi Calm Calm - N/A   Overcast
3:26 AM 46.4 °F - 32.0 °F 57% 30.39 in 10.0 mi Calm Calm - N/A   Overcast
3:46 AM 46.4 °F - 32.0 °F 57% 30.38 in 10.0 mi Calm Calm - N/A   Scattered Clouds
4:06 AM 46.4 °F 45.2 °F 32.0 °F 57% 30.38 in 10.0 mi SSE 3.5 mph - N/A   Scattered Clouds
4:26 AM 46.4 °F 44.3 °F 32.0 °F 57% 30.38 in 10.0 mi South 4.6 mph - N/A   Scattered Clouds
4:46 AM 46.4 °F 45.2 °F 32.0 °F 57% 30.38 in 10.0 mi SSE 3.5 mph - N/A   Clear
5:06 AM 46.4 °F - 32.0 °F 57% 30.38 in 10.0 mi Calm Calm - N/A   Clear
5:26 AM 46.4 °F 43.5 °F 32.0 °F 57% 30.38 in 10.0 mi SSE 5.8 mph - N/A   Mostly Cloudy
5:46 AM 46.4 °F 44.3 °F 32.0 °F 57% 30.38 in 10.0 mi South 4.6 mph - N/A   Overcast
6:06 AM 46.4 °F 44.3 °F 32.0 °F 57% 30.38 in 10.0 mi South 4.6 mph - N/A   Overcast
6:46 AM 46.4 °F 43.5 °F 32.0 °F 57% 30.38 in 10.0 mi South 5.8 mph - N/A   Overcast
7:06 AM 46.4 °F 45.2 °F 32.0 °F 57% 30.38 in 10.0 mi South 3.5 mph - N/A   Light Drizzle
7:26 AM 48.2 °F - 32.0 °F 54% 30.39 in 10.0 mi Calm Calm - N/A Thunderstorm Overcast
7:46 AM 48.2 °F - 32.0 °F 54% 30.39 in 10.0 mi Calm Calm - N/A   Overcast
8:06 AM 46.4 °F 44.3 °F 32.0 °F 57% 30.39 in 10.0 mi SSE 4.6 mph - N/A   Overcast
8:26 AM 50.0 °F - 32.0 °F 50% 30.39 in 10.0 mi Calm Calm - N/A   Overcast
8:46 AM 51.8 °F - 32.0 °F 47% 30.39 in 10.0 mi Calm Calm - N/A   Mostly Cloudy
9:06 AM 50.0 °F - 32.0 °F 50% 30.39 in 10.0 mi Calm Calm - N/A Rain Rain
9:26 AM 50.0 °F - 32.0 °F 50% 30.39 in 10.0 mi Calm Calm - N/A   Overcast
9:46 AM 50.0 °F - 32.0 °F 50% 30.39 in 10.0 mi Calm Calm - N/A   Overcast
10:06 AM 50.0 °F - 32.0 °F 50% 30.38 in 10.0 mi Calm Calm - N/A   Overcast
10:26 AM 51.8 °F - 33.8 °F 50% 30.38 in 10.0 mi Calm Calm - N/A   Scattered Clouds
10:46 AM 51.8 °F - 33.8 °F 50% 30.37 in 10.0 mi Calm Calm - N/A   Mostly Cloudy
11:06 AM 53.6 °F - 33.8 °F 47% 30.37 in 10.0 mi South 4.6 mph - N/A   Overcast
11:26 AM 55.4 °F - 33.8 °F 44% 30.36 in 10.0 mi South 4.6 mph - N/A   Mostly Cloudy
11:46 AM 53.6 °F - 33.8 °F 47% 30.35 in 10.0 mi Calm Calm - N/A   Mostly Cloudy
12:06 PM 51.8 °F - 32.0 °F 47% 30.34 in 10.0 mi South 4.6 mph - N/A   Overcast
12:26 PM 55.4 °F - 32.0 °F 41% 30.34 in 10.0 mi South 3.5 mph - N/A   Mostly Cloudy
12:46 PM 53.6 °F - 32.0 °F 44% 30.33 in 10.0 mi South 5.8 mph - N/A   Mostly Cloudy
1:06 PM 53.6 °F - 32.0 °F 44% 30.32 in 10.0 mi Calm Calm - N/A Thunderstorm Mostly Cloudy
1:46 PM 55.4 °F - 30.2 °F 38% 30.29 in 10.0 mi SSW 5.8 mph - N/A Thunderstorm Overcast
2:06 PM 53.6 °F - 33.8 °F 47% 30.28 in 10.0 mi WSW 8.1 mph - N/A Rain Light Rain
2:26 PM 55.4 °F - 32.0 °F 41% 30.27 in 10.0 mi West 3.5 mph - N/A Thunderstorm Scattered Clouds
2:46 PM 53.6 °F - 32.0 °F 44% 30.27 in 10.0 mi Calm Calm - N/A Thunderstorm Scattered Clouds
3:06 PM 53.6 °F - 33.8 °F 47% 30.26 in 10.0 mi WSW 8.1 mph - N/A   Mostly Cloudy
3:26 PM 51.8 °F - 35.6 °F 54% 30.26 in 10.0 mi West 4.6 mph - N/A   Mostly Cloudy
4:06 PM 51.8 °F - 37.4 °F 58% 30.26 in 10.0 mi WSW 8.1 mph - N/A   Mostly Cloudy
4:16 PM 50.0 °F - 37.4 °F 62% 30.26 in 10.0 mi WSW 9.2 mph 18.4 mph N/A   Mostly Cloudy
4:46 PM 44.6 °F 39.2 °F 39.2 °F 81% 30.26 in 0.5 mi WSW 10.4 mph 18.4 mph N/A Rain Rain
5:06 PM 42.8 °F 37.5 °F 39.2 °F 87% 30.27 in 0.2 mi WSW 9.2 mph 16.1 mph N/A Rain , Thunderstorm Rain
5:26 PM 42.8 °F 38.6 °F 39.2 °F 87% 30.27 in 0.2 mi WSW 6.9 mph - N/A Rain , Thunderstorm Rain
5:46 PM 42.8 °F 36.6 °F 39.2 °F 87% 30.27 in 0.2 mi SW 11.5 mph 19.6 mph N/A   Overcast
6:06 PM 41.0 °F 34.3 °F 37.4 °F 87% 30.27 in 0.5 mi SW 11.5 mph 19.6 mph N/A Rain Rain
6:26 PM 41.0 °F 35.2 °F 37.4 °F 87% 30.27 in 0.5 mi SSW 9.2 mph 20.7 mph N/A Rain Rain
6:46 PM 37.4 °F 30.3 °F 35.6 °F 93% 30.27 in 0.5 mi SW 10.4 mph 21.9 mph N/A Snow Light Snow
7:06 PM 37.4 °F 32.1 °F 35.6 °F 93% 30.27 in 0.8 mi SW 6.9 mph - N/A Snow Light Snow
7:26 PM 37.4 °F - 33.8 °F 87% 30.27 in 0.8 mi Calm Calm - N/A Snow Snow
7:46 PM 37.4 °F - 35.6 °F 93% 30.26 in 5.0 mi Calm Calm - N/A Rain Light Rain
8:06 PM 41.0 °F - 37.4 °F 87% 30.25 in 10.0 mi Calm Calm - N/A   Light Drizzle
8:26 PM 39.2 °F - 35.6 °F 87% 30.24 in 10.0 mi Calm Calm - N/A   Overcast
8:46 PM 41.0 °F 39.0 °F 37.4 °F 87% 30.24 in 10.0 mi South 3.5 mph - N/A Rain Light Rain
9:06 PM 41.0 °F - 37.4 °F 87% 30.23 in 10.0 mi Calm Calm - N/A Rain Rain
9:26 PM 41.0 °F - 37.4 °F 87% 30.22 in 10.0 mi Calm Calm - N/A   Mostly Cloudy
9:46 PM 41.0 °F - 37.4 °F 87% 30.22 in 10.0 mi Calm Calm - N/A   Overcast
10:06 PM 41.0 °F - 35.6 °F 81% 30.21 in 10.0 mi Calm Calm - N/A   Scattered Clouds
10:26 PM 41.0 °F - 35.6 °F 81% 30.21 in 10.0 mi Calm Calm - N/A   Clear
10:46 PM 41.0 °F 39.0 °F 37.4 °F 87% 30.21 in 10.0 mi East 3.5 mph - N/A   Mostly Cloudy
11:06 PM 41.0 °F - 37.4 °F 87% 30.20 in 10.0 mi Calm Calm - N/A   Mostly Cloudy
11:26 PM 41.0 °F - 35.6 °F 81% 30.20 in 10.0 mi Calm Calm - N/A   Scattered Clouds
11:46 PM 41.0 °F - 35.6 °F 81% 30.20 in 10.0 mi Calm Calm - N/A   Clear